Location: Lombard
(41.8800°N, 88.0080°W)
Time: 04:36:58
(UTC-05:00)

AO-73 - Visible Passes

Search period start: 16 May 2022 00:00
Search period end: 26 May 2022 00:00
Orbit: 578 x 659 km, 97.6° (Epoch: 15 May)

Date Brightness Start Highest point End Pass type
(mag) Time Alt. Az. Time Alt. Az. Time Alt. Az.
16 May ? 03:49:03 10° ENE 03:50:20 11° E 03:51:37 10° ESE visible
17 May ? 04:04:40 10° NE 04:07:28 18° E 04:10:15 10° SE visible
18 May ? 04:21:02 10° NE 04:24:32 27° E 04:28:02 10° SSE visible
19 May ? 04:37:39 10° NNE 04:41:34 41° E 04:45:27 10° S visible
22 May ? 03:53:54 10° ENE 03:55:57 13° E 03:58:00 10° ESE visible
23 May ? 04:09:54 10° NE 04:13:01 21° E 04:16:08 10° SE visible
24 May ? 04:26:20 10° NNE 04:30:02 31° E 04:33:44 10° SSE visible
25 May ? 04:42:59 10° NNE 04:47:00 49° E 04:51:02 10° S visible
